Live-Position
3D-Globus wird geladen...
Über Starlink 1992
Group: 3 satellites
Beschreibung wird geladen...
Nächste Überflüge
Passes for default location (London). Set your location on the main map for personalized predictions.
Höhenverlauf
Loading altitude history...
No altitude history available
Zweizeiliger Elementsatz
1 47632U 21012N 26124.09942036 -.00000063 00000-0 10022-4 0 9995
2 47632 53.1617 75.0356 0001580 85.8005 274.3176 15.30182490289847
Epoch: 4. Mai 2026 •
Age: 8 hours
Aktueller Status
Höhe 478.3 km
Geschwindigkeit 7.63 km/s
Subsatellitenpunkt 41.83°N,
95.94°E
Startdatum 16. Feb. 2021
Alter 5.2 years
Typ internet
Startgruppe
Falcon 9 •
Launch 19 •
18 satellites
Starlink 1609
47621
Starlink 1655 47623
Starlink 1704 47625
Starlink 1972 47627
Starlink 1973 47628
Starlink 1983 47630
Starlink 2015 47638
Starlink 2019 47641
Starlink 2031 47648
Starlink 2032 47649
Starlink 2033 47650
Starlink 2036 47652
Starlink 2039 47655
Starlink 2040 47656
Starlink 2041 47657
Starlink 2065 47672
Starlink 2083 47676
Technische Details
Klassifizierung Payload
Masse 260.00 kg
Trockenmasse 248.00 kg
Gesamtmasse 260.00 kg
Länge 0.20 m
Durchmesser 2.80 m
Spannweite 9.00 m
Form Box + pan
Hersteller SPXS
Bus-Typ Starlink
Phasenstatus In Orbit
Besitzer/Staat SPXS/US
Most Searched
Loading...